North Myrtle Beach, SC

4:29 PM EST on January 22, 2018 (GMT -0500)
Grand Strand

Weather History for KCRE - February, 2014

Change the Weather History Date:

Monday, February 10, 2014

  Actual Average Record
Temperature  
Mean Temperature 47 °F 47 °F  
Max Temperature 56 °F 56 °F 76 °F (1950)
Min Temperature 37 °F 38 °F 20 °F (1989)
Degree Days  
Heating Degree Days 18 18  
Month to date heating degree days 179 185  
Since 1 July heating degree days 1702 1653  
Cooling Degree Days 0 0  
Month to date cooling degree days 0 0  
Year to date cooling degree days 0 0  
Moisture  
Dew Point 38 °F    
Average Humidity 76    
Maximum Humidity 100    
Minimum Humidity 51    
Precipitation  
Precipitation 0.00 in 0.11 in 0.60 in (2003)
Month to date precipitation 0.57 1.11  
Year to date precipitation 2.38 4.80  
Sea Level Pressure  
Sea Level Pressure 30.11 in    
Wind  
Wind Speed 7 mph (ENE)    
Max Wind Speed 16 mph    
Max Gust Speed 19 mph    
Visibility 10 miles    
Events      
T = Trace of Precipitation, MM = Missing Value Source: NWS Daily Summary

Daily Weather History Graph

Daily Weather History Graph

Search for Another Location

Airport or City:

Trip Planner

Search our weather history database for the weather conditions in past years. The results will help you decide how hot, cold, wet, or windy it might be!

Date:

Astronomy

Feb. 10, 2014 Rise Set
Actual Time 7:04 AM EST 5:54 PM EST
Civil Twilight 6:38 AM EST 6:20 PM EST
Nautical Twilight 6:09 AM EST 6:49 PM EST
Astronomical Twilight 5:39 AM EST 7:18 PM EST
Moon 2:26 PM EST (2/10) 3:51 AM EST (2/10)
Length of Visible Light 11h 41m
Length of Day
10h 50m
Waxing Gibbous, 84% of the Moon is Illuminated
Feb 10
Waxing Gibbous
Feb 14
Full
Feb 22
Last Quarter
Mar 1
New
Mar 8
First Quarter

Hourly Weather History & Observations

Time (EST) Temp. Windchill Dew Point Humidity Pressure Visibility Wind Dir Wind Speed Gust Speed Precip Events Conditions
12:53 AM 46.9 °F - 39.0 °F 74% 30.06 in 10.0 mi WSW 4.6 mph - N/A   Clear
1:53 AM 45.0 °F 43.5 °F 37.9 °F 76% 30.04 in 10.0 mi WSW 3.5 mph - N/A   Clear
2:53 AM 44.1 °F 42.5 °F 37.9 °F 79% 30.04 in 10.0 mi West 3.5 mph - N/A   Clear
3:53 AM 44.1 °F 42.5 °F 37.9 °F 79% 30.05 in 10.0 mi West 3.5 mph - N/A   Clear
4:53 AM 39.9 °F - 37.0 °F 89% 30.04 in 10.0 mi Calm Calm - N/A   Clear
5:53 AM 37.9 °F 35.5 °F 37.0 °F 97% 30.05 in 7.0 mi NNE 3.5 mph - N/A   Clear
6:53 AM 37.9 °F 35.5 °F 36.0 °F 93% 30.09 in 7.0 mi SSW 3.5 mph - N/A   Clear
7:53 AM 39.9 °F - 37.9 °F 93% 30.11 in 5.0 mi Calm Calm - N/A   Clear
8:53 AM 46.9 °F - 39.9 °F 77% 30.13 in 10.0 mi North 4.6 mph - N/A   Clear
9:53 AM 50.0 °F - 41.0 °F 71% 30.14 in 10.0 mi NNE 10.4 mph 19.6 mph N/A   Clear
10:53 AM 54.0 °F - 37.9 °F 55% 30.14 in 10.0 mi NE 11.5 mph - N/A   Clear
11:53 AM 55.9 °F - 39.0 °F 53% 30.11 in 10.0 mi NE 9.2 mph - N/A   Clear
12:53 PM 55.0 °F - 37.9 °F 53% 30.10 in 10.0 mi SE 10.4 mph - N/A   Clear
1:53 PM 54.0 °F - 37.9 °F 55% 30.08 in 10.0 mi SE 8.1 mph - N/A   Clear
2:53 PM 52.0 °F - 39.0 °F 61% 30.07 in 10.0 mi ESE 8.1 mph - N/A   Clear
3:53 PM 51.1 °F - 37.9 °F 61% 30.09 in 10.0 mi ESE 12.7 mph - N/A   Mostly Cloudy
4:53 PM 50.0 °F - 41.0 °F 71% 30.10 in 10.0 mi East 11.5 mph - N/A   Mostly Cloudy
5:53 PM 48.9 °F - 42.1 °F 77% 30.12 in 10.0 mi East 10.4 mph - N/A   Overcast
6:53 PM 48.9 °F - 42.1 °F 77% 30.14 in 10.0 mi East 8.1 mph - N/A   Overcast
7:53 PM 48.9 °F - 39.9 °F 71% 30.16 in 10.0 mi East 6.9 mph - N/A   Overcast
8:53 PM 46.9 °F - 37.9 °F 71% 30.15 in 10.0 mi East 10.4 mph - N/A   Mostly Cloudy
9:53 PM 45.0 °F 40.1 °F 37.0 °F 74% 30.17 in 10.0 mi ENE 9.2 mph - N/A   Mostly Cloudy
10:53 PM 44.1 °F 38.1 °F 36.0 °F 73% 30.18 in 10.0 mi ENE 11.5 mph - N/A   Mostly Cloudy
11:53 PM 44.1 °F 38.1 °F 34.0 °F 68% 30.19 in 10.0 mi NNE 11.5 mph - N/A   Overcast